When you browse on this site, cookies collect data to enhance your experience and personalize the content and advertising you see.
Visit our Privacy Policy to learn more. By continuing to use the site, you agree to this use of cookies and data.
  • In Schweiz
  • Länderverzeichnis
  • Für 7 Tage
  • Wassertemperatur
  • Wetterkarte
  • Widgets
  • user-avatar
    Anmelden

    Stündliche Wetter Armawir

    Heute, 24 August, Samstag

    Zeit Temperatur Niederschläge Wind Luftdruck Luftfeuchtigkeit
    00:00 +23°C° 0 mm 2 m/S 686 mmHg 44%
    01:00 +23°C° 0 mm 2 m/S 687 mmHg 45%
    02:00 +21°C° 0 mm 2 m/S 687 mmHg 46%
    03:00 +21°C° 0 mm 2 m/S 687 mmHg 47%
    04:00 +21°C° 0 mm 2 m/S 687 mmHg 47%
    05:00 +21°C° 0 mm 2 m/S 687 mmHg 47%
    06:00 +21°C° 0 mm 2 m/S 687 mmHg 47%
    07:00 +25°C° 0 mm 2 m/S 688 mmHg 41%
    08:00 +28°C° 0 mm 2 m/S 688 mmHg 34%
    09:00 +30°C° 0 mm 2 m/S 689 mmHg 28%
    10:00 +32°C° 0 mm 2 m/S 689 mmHg 25%
    11:00 +35°C° 0 mm 2 m/S 689 mmHg 21%
    12:00 +37°C° 0 mm 2 m/S 689 mmHg 18%
    13:00 +36°C° 0 mm 1 m/S 689 mmHg 17%
    14:00 +37°C° 0 mm 1 m/S 689 mmHg 15%
    15:00 +39°C° 0 mm 1 m/S 688 mmHg 14%
    16:00 +38°C° 0 mm 2 m/S 688 mmHg 16%
    17:00 +37°C° 0 mm 4 m/S 689 mmHg 18%
    18:00 +36°C° 0 mm 5 m/S 689 mmHg 20%
    19:00 +33°C° 0.1 mm 5 m/S 689 mmHg 28%
    20:00 +29°C° 0.1 mm 5 m/S 689 mmHg 35%
    21:00 +27°C° 0.1 mm 5 m/S 689 mmHg 43%
    22:00 +26°C° 0 mm 4 m/S 689 mmHg 45%
    23:00 +25°C° 0 mm 4 m/S 689 mmHg 48%

    Morgen, 25 August, Sonntag

    Zeit Temperatur Niederschläge Wind Luftdruck Luftfeuchtigkeit
    00:00 +24°C° 0 mm 3 m/S 688 mmHg 50%
    01:00 +22°C° 0 mm 3 m/S 688 mmHg 52%
    02:00 +23°C° 0 mm 2 m/S 688 mmHg 53%
    03:00 +21°C° 0 mm 2 m/S 688 mmHg 54%
    04:00 +21°C° 0 mm 2 m/S 688 mmHg 54%
    05:00 +22°C° 0 mm 1 m/S 688 mmHg 54%
    06:00 +23°C° 0 mm 1 m/S 688 mmHg 54%
    07:00 +25°C° 0 mm 1 m/S 688 mmHg 47%
    08:00 +28°C° 0 mm 1 m/S 689 mmHg 40%
    09:00 +30°C° 0 mm 2 m/S 689 mmHg 33%
    10:00 +32°C° 0 mm 2 m/S 689 mmHg 29%
    11:00 +34°C° 0 mm 1 m/S 689 mmHg 25%
    12:00 +35°C° 0 mm 1 m/S 689 mmHg 21%
    13:00 +36°C° 0 mm 1 m/S 688 mmHg 19%
    14:00 +38°C° 0 mm 2 m/S 688 mmHg 17%
    15:00 +39°C° 0 mm 2 m/S 688 mmHg 16%
    16:00 +38°C° 0 mm 2 m/S 688 mmHg 17%
    17:00 +37°C° 0 mm 2 m/S 688 mmHg 19%
    18:00 +36°C° 0 mm 3 m/S 688 mmHg 20%
    19:00 +34°C° 0 mm 3 m/S 688 mmHg 27%
    20:00 +30°C° 0 mm 3 m/S 688 mmHg 33%
    21:00 +28°C° 0 mm 3 m/S 688 mmHg 39%
    22:00 +27°C° 0 mm 3 m/S 688 mmHg 41%
    23:00 +26°C° 0 mm 3 m/S 688 mmHg 43%

    übermorgen, 26 August, Montag

    Zeit Temperatur Niederschläge Wind Luftdruck Luftfeuchtigkeit
    00:00 +25°C° 0 mm 3 m/S 688 mmHg 45%
    01:00 +25°C° 0 mm 2 m/S 688 mmHg 46%
    02:00 +24°C° 0 mm 2 m/S 688 mmHg 47%
    03:00 +23°C° 0 mm 2 m/S 688 mmHg 48%
    04:00 +23°C° 0 mm 2 m/S 688 mmHg 48%
    05:00 +23°C° 0 mm 2 m/S 688 mmHg 48%
    06:00 +23°C° 0 mm 2 m/S 688 mmHg 48%
    07:00 +26°C° 0 mm 2 m/S 689 mmHg 42%
    08:00 +28°C° 0 mm 1 m/S 689 mmHg 36%
    09:00 +31°C° 0 mm 1 m/S 689 mmHg 30%
    10:00 +33°C° 0 mm 1 m/S 689 mmHg 27%
    11:00 +34°C° 0 mm 1 m/S 689 mmHg 24%
    12:00 +37°C° 0 mm 2 m/S 689 mmHg 21%
    13:00 +38°C° 0 mm 2 m/S 689 mmHg 19%
    14:00 +39°C° 0 mm 2 m/S 689 mmHg 17%
    15:00 +40°C° 0 mm 2 m/S 688 mmHg 16%
    16:00 +38°C° 0 mm 3 m/S 688 mmHg 18%
    17:00 +37°C° 0 mm 4 m/S 688 mmHg 21%
    18:00 +36°C° 0 mm 5 m/S 688 mmHg 23%
    19:00 +33°C° 1.1 mm 4 m/S 689 mmHg 36%
    20:00 +28°C° 1.1 mm 4 m/S 689 mmHg 48%
    21:00 +25°C° 1.1 mm 3 m/S 689 mmHg 61%
    22:00 +24°C° 0.1 mm 2 m/S 689 mmHg 63%
    23:00 +24°C° 0.1 mm 2 m/S 689 mmHg 65%

    27 August, Dienstag

    Zeit Temperatur Niederschläge Wind Luftdruck Luftfeuchtigkeit
    00:00 +23°C° 0.1 mm 1 m/S 689 mmHg 67%
    01:00 +23°C° 0.1 mm 1 m/S 689 mmHg 68%
    02:00 +22°C° 0.1 mm 1 m/S 689 mmHg 69%
    03:00 +22°C° 0.1 mm 1 m/S 688 mmHg 69%
    04:00 +22°C° 0 mm 1 m/S 688 mmHg 69%
    05:00 +22°C° 0 mm 1 m/S 688 mmHg 68%
    06:00 +22°C° 0 mm 1 m/S 689 mmHg 67%
    07:00 +24°C° 0 mm 1 m/S 689 mmHg 59%
    08:00 +26°C° 0 mm 2 m/S 689 mmHg 51%
    09:00 +28°C° 0 mm 2 m/S 689 mmHg 43%
    10:00 +30°C° 0 mm 2 m/S 688 mmHg 37%
    11:00 +31°C° 0 mm 2 m/S 688 mmHg 31%
    12:00 +34°C° 0 mm 2 m/S 688 mmHg 24%
    13:00 +35°C° 0 mm 3 m/S 688 mmHg 22%
    14:00 +37°C° 0 mm 3 m/S 687 mmHg 20%
    15:00 +38°C° 0 mm 3 m/S 687 mmHg 17%
    16:00 +37°C° 0 mm 4 m/S 687 mmHg 19%
    17:00 +36°C° 0 mm 4 m/S 687 mmHg 20%
    18:00 +35°C° 0 mm 5 m/S 687 mmHg 22%
    19:00 +33°C° 0 mm 4 m/S 687 mmHg 27%
    20:00 +30°C° 0 mm 4 m/S 687 mmHg 32%
    21:00 +28°C° 0 mm 3 m/S 687 mmHg 37%
    22:00 +27°C° 0 mm 3 m/S 687 mmHg 40%
    23:00 +26°C° 0 mm 2 m/S 687 mmHg 42%

    28 August, Mittwoch

    Zeit Temperatur Niederschläge Wind Luftdruck Luftfeuchtigkeit
    00:00 +25°C° 0 mm 2 m/S 687 mmHg 45%
    01:00 +25°C° 0 mm 2 m/S 687 mmHg 46%
    02:00 +25°C° 0 mm 2 m/S 687 mmHg 47%
    03:00 +24°C° 0 mm 2 m/S 687 mmHg 49%
    04:00 +24°C° 0 mm 2 m/S 687 mmHg 50%
    05:00 +23°C° 0 mm 2 m/S 687 mmHg 51%
    06:00 +23°C° 0 mm 2 m/S 687 mmHg 52%
    07:00 +25°C° 0 mm 2 m/S 687 mmHg 45%
    08:00 +28°C° 0 mm 2 m/S 687 mmHg 39%
    09:00 +30°C° 0 mm 3 m/S 688 mmHg 32%
    10:00 +32°C° 0 mm 2 m/S 688 mmHg 29%
    11:00 +34°C° 0 mm 2 m/S 688 mmHg 25%
    12:00 +36°C° 0 mm 2 m/S 688 mmHg 21%
    13:00 +37°C° 0 mm 2 m/S 687 mmHg 19%
    14:00 +38°C° 0 mm 3 m/S 687 mmHg 17%
    15:00 +39°C° 0 mm 3 m/S 687 mmHg 15%
    16:00 +38°C° 0 mm 3 m/S 687 mmHg 17%
    17:00 +37°C° 0 mm 3 m/S 687 mmHg 19%
    18:00 +36°C° 0 mm 4 m/S 687 mmHg 21%
    19:00 +34°C° 0 mm 3 m/S 687 mmHg 27%
    20:00 +30°C° 0 mm 3 m/S 687 mmHg 33%
    21:00 +28°C° 0 mm 3 m/S 687 mmHg 39%
    22:00 +27°C° 0 mm 2 m/S 687 mmHg 41%
    23:00 +26°C° 0 mm 2 m/S 687 mmHg 42%

    29 August, Donnerstag

    Zeit Temperatur Niederschläge Wind Luftdruck Luftfeuchtigkeit
    00:00 +26°C° 0 mm 1 m/S 687 mmHg 44%
    01:00 +25°C° 0 mm 1 m/S 687 mmHg 46%
    02:00 +24°C° 0 mm 1 m/S 687 mmHg 48%
    03:00 +24°C° 0 mm 1 m/S 687 mmHg 50%
    04:00 +23°C° 0 mm 1 m/S 687 mmHg 51%
    05:00 +23°C° 0 mm 1 m/S 687 mmHg 52%
    06:00 +23°C° 0 mm 1 m/S 687 mmHg 52%
    07:00 +25°C° 0 mm 1 m/S 687 mmHg 46%
    08:00 +28°C° 0 mm 2 m/S 687 mmHg 40%
    09:00 +30°C° 0 mm 2 m/S 687 mmHg 34%
    10:00 +32°C° 0 mm 2 m/S 687 mmHg 29%
    11:00 +35°C° 0 mm 2 m/S 687 mmHg 24%
    12:00 +37°C° 0 mm 2 m/S 687 mmHg 20%
    13:00 +36°C° 0 mm 5 m/S 687 mmHg 21%
    14:00 +35°C° 0 mm 8 m/S 687 mmHg 23%
    15:00 +36°C° 0 mm 10 m/S 686 mmHg 24%
    16:00 +34°C° 0.1 mm 8 m/S 687 mmHg 27%
    17:00 +33°C° 0.1 mm 6 m/S 687 mmHg 29%
    18:00 +30°C° 0.1 mm 3 m/S 687 mmHg 32%
    19:00 +28°C° 0.2 mm 3 m/S 687 mmHg 42%
    20:00 +26°C° 0.2 mm 2 m/S 687 mmHg 52%
    21:00 +24°C° 0.2 mm 1 m/S 687 mmHg 62%
    22:00 +24°C° 0.1 mm 1 m/S 687 mmHg 64%
    23:00 +23°C° 0.1 mm 1 m/S 687 mmHg 65%
    Mehr zeigen